Location: Winthrop
(48.4780°N, 120.1850°W)
Time: 04:09:27
(UTC-08:00)

Vanguard 1 Rocket - Pass Details

Date: 06 December 2023
Orbit: 654 x 4218 km, 34.3° (Epoch: 24 February)

Event Time Altitude Azimuth Distance (km) Brightness Sun altitude
Rises 04:39:49 0° 231° (SW) 8,387 - -28.4°
Exits shadow 04:41:54 - 230° (SW) 8,005 11.8 -28.0°
Reaches altitude 10° 04:46:31 10° 226° (SW) 7,135 11.6 -27.3°
Maximum altitude 05:06:07 40° 167° (SSE) 3,769 10.6 -24.0°
Drops below altitude 10° 05:17:46 10° 103° (ESE) 4,364 12.0 -22.1°
Sets 05:20:43 0° 96° (E) 4,978 12.7 -21.7°
